Date String (YYYY-MM-DD hh:mm:ss) UTC,Instrument flags,Ambient pressure (hPa),Sample flow (lpm),Bypass flow (lpm),Sample temperature (°C),Ambient temperature (°C),ASC tube jacket temperature (°C),LED temperature (°C),Box temperature (°C),Sample RH (%),Span deviation,Mass concentration (μg/m³),Mass concentration (μg/m³),Mass concentration (μg/m³)
DateTimeUTC,F1_M11,P_M11,Q1_M11,Q2_M11,T1_M11,T2_M11,T3_M11,T4_M11,T5_M11,U1_M11,ZSPAN_M11,X0_M11,X2_M11,X1_M11
2023-01-03 16:00:00,,0816.7,4.98,0.00,22.7,21.4,00.0,31.4,24.4,11.0,0000.0,0008.28,0001.84,0001.28
2023-01-03 16:01:00,,0816.8,4.98,0.00,22.7,21.4,00.0,31.4,24.5,11.0,0000.0,0008.06,0001.80,0001.26
2023-01-03 16:02:00,,0816.8,4.97,0.00,22.7,21.4,00.0,31.4,24.5,11.0,0000.0,0007.94,0001.86,0001.23
2023-01-03 16:03:00,,0816.9,5.03,0.00,22.7,21.5,00.0,31.4,24.5,11.0,0000.0,0007.01,0001.93,0001.21
2023-01-03 16:04:00,,0816.9,5.00,0.00,22.7,21.5,00.0,31.4,24.5,11.1,0000.0,0007.49,0001.97,0001.20
2023-01-03 16:05:00,,0816.9,5.06,0.00,22.7,21.5,00.0,31.4,24.5,11.1,0000.0,0007.57,0002.07,0001.20
2023-01-03 16:06:00,,0817.2,4.98,0.00,22.7,21.5,00.0,31.4,24.5,11.0,0000.0,0007.71,0002.15,0001.22
2023-01-03 16:07:00,,0817.3,4.98,0.00,22.7,21.5,00.0,31.4,24.5,10.9,0000.0,0008.05,0002.29,0001.23
2023-01-03 16:08:00,,0817.2,5.04,0.00,22.7,21.5,00.0,31.5,24.5,10.9,0000.0,0008.26,0002.40,0001.25
2023-01-03 16:09:00,,0817.2,4.98,0.00,22.7,21.5,00.0,31.5,24.5,10.9,0000.0,0008.83,0002.50,0001.27
2023-01-03 16:10:00,,0817.0,4.99,0.00,22.8,21.5,00.0,31.5,24.5,10.9,0000.0,0008.85,0002.51,0001.28
2023-01-03 16:11:00,,0817.0,4.98,0.00,22.8,21.5,00.0,31.5,24.6,10.9,0000.0,0008.91,0002.54,0001.29
2023-01-03 16:12:00,,0817.0,4.98,0.00,22.8,21.5,00.0,31.5,24.5,10.9,0000.0,0007.86,0002.55,0001.30
2023-01-03 16:13:00,,0817.0,5.00,0.00,22.8,21.5,00.0,31.5,24.5,10.9,0000.0,0007.44,0002.58,0001.32
2023-01-03 16:14:00,,0816.9,5.06,0.00,22.8,21.6,00.0,31.5,24.5,11.0,0000.0,0007.75,0002.52,0001.34
2023-01-03 16:15:00,,0817.0,5.00,0.00,22.8,21.6,00.0,31.5,24.5,11.0,0000.0,0008.34,0002.57,0001.37
2023-01-03 16:16:00,,0817.0,5.05,0.00,22.8,21.6,00.0,31.5,24.6,11.0,0000.0,0008.87,0002.55,0001.39
2023-01-03 16:17:00,,0817.0,5.03,0.00,22.8,21.6,00.0,31.5,24.6,11.0,0000.0,0008.86,0002.55,0001.40
2023-01-03 16:18:00,,0817.1,5.01,0.00,22.8,21.6,00.0,31.5,24.6,10.9,0000.0,0008.86,0002.60,0001.43
2023-01-03 16:19:00,,0817.1,4.98,0.00,22.8,21.6,00.0,31.5,24.6,10.9,0000.0,0009.42,0002.65,0001.48
2023-01-03 16:20:00,,0817.1,5.01,0.00,22.8,21.6,00.0,31.6,24.6,10.9,0000.0,0009.80,0002.68,0001.51
2023-01-03 16:21:00,,0817.1,5.03,0.00,22.8,21.6,00.0,31.6,24.6,10.9,0000.0,0010.09,0002.67,0001.53
2023-01-03 16:22:00,,0817.1,5.01,0.00,22.9,21.6,00.0,31.6,24.6,10.8,0000.0,0010.71,0002.78,0001.56
2023-01-03 16:23:00,,0817.1,4.97,0.00,22.9,21.6,00.0,31.6,24.6,10.8,0000.0,0012.54,0002.91,0001.59
2023-01-03 16:24:00,,0817.1,4.97,0.00,22.9,21.6,00.0,31.6,24.6,10.8,0000.0,0012.90,0003.05,0001.62
2023-01-03 16:25:00,,0817.2,5.01,0.00,22.9,21.6,00.0,31.6,24.6,10.8,0000.0,0013.21,0003.11,0001.65
2023-01-03 16:26:00,,0817.2,5.05,0.00,22.9,21.6,00.0,31.6,24.6,10.8,0000.0,0013.53,0003.12,0001.67
2023-01-03 16:27:00,,0817.3,5.00,0.00,22.8,21.5,00.0,31.6,24.6,10.8,0000.0,0012.65,0003.13,0001.70
2023-01-03 16:28:00,,0817.3,4.97,0.00,22.8,21.5,00.0,31.6,24.5,10.8,0000.0,0012.25,0003.13,0001.72
2023-01-03 16:29:00,,0817.3,5.06,0.00,22.9,21.5,00.0,31.6,24.5,10.9,0000.0,0012.73,0003.10,0001.73
2023-01-03 16:30:00,,0817.3,4.98,0.00,22.8,21.5,00.0,31.6,24.6,10.9,0000.0,0012.49,0003.02,0001.73
2023-01-03 16:31:00,,0817.3,5.01,0.00,22.8,21.5,00.0,31.6,24.6,10.9,0000.0,0011.87,0003.01,0001.75
2023-01-03 16:32:00,,0817.2,5.00,0.00,22.8,21.5,00.0,31.6,24.6,10.9,0000.0,0011.52,0003.03,0001.77
2023-01-03 16:33:00,,0817.3,5.00,0.00,22.8,21.5,00.0,31.6,24.6,10.9,0000.0,0010.76,0002.96,0001.78
2023-01-03 16:34:00,,0817.4,4.99,0.00,22.8,21.5,00.0,31.6,24.6,10.8,0000.0,0009.11,0002.90,0001.79
2023-01-03 16:35:00,,0817.4,4.99,0.00,22.8,21.5,00.0,31.6,24.5,10.7,0000.0,0008.86,0002.86,0001.79
2023-01-03 16:36:00,,0817.3,5.01,0.00,22.8,21.5,00.0,31.6,24.5,10.7,0000.0,0008.51,0002.76,0001.79
2023-01-03 16:37:00,,0817.4,5.02,0.00,22.8,21.4,00.0,31.6,24.5,10.7,0000.0,0007.85,0002.65,0001.79
2023-01-03 16:38:00,,0817.3,5.01,0.00,22.8,21.4,00.0,31.6,24.5,10.8,0000.0,0007.91,0002.58,0001.76
2023-01-03 16:39:00,,0817.3,5.00,0.00,22.8,21.4,00.0,31.6,24.5,10.8,0000.0,0008.32,0002.50,0001.75
2023-01-03 16:40:00,,0817.3,5.00,0.00,22.8,21.4,00.0,31.6,24.5,10.9,0000.0,0008.08,0002.54,0001.74
2023-01-03 16:41:00,,0817.3,4.99,0.00,22.8,21.4,00.0,31.6,24.5,10.9,0000.0,0007.78,0002.58,0001.72
2023-01-03 16:42:00,,0817.4,5.00,0.00,22.8,21.4,00.0,31.6,24.5,10.9,0000.0,0007.69,0002.51,0001.71
2023-01-03 16:43:00,,0817.4,4.99,0.00,22.8,21.4,00.0,31.6,24.5,11.0,0000.0,0007.60,0002.51,0001.70
2023-01-03 16:44:00,,0817.5,5.00,0.00,22.8,21.4,00.0,31.6,24.4,10.9,0000.0,0007.98,0002.53,0001.69
2023-01-03 16:45:00,,0817.5,5.01,0.00,22.8,21.4,00.0,31.6,24.4,11.0,0000.0,0008.52,0002.56,0001.69
2023-01-03 16:46:00,,0817.5,5.01,0.00,22.8,21.3,00.0,31.6,24.4,11.0,0000.0,0009.23,0002.52,0001.70
2023-01-03 16:47:00,,0817.5,4.99,0.00,22.8,21.3,00.0,31.6,24.4,11.1,0000.0,0009.39,0002.50,0001.70
2023-01-03 16:48:00,,0817.6,5.00,0.00,22.8,21.3,00.0,31.6,24.5,11.1,0000.0,0009.51,0002.53,0001.70
2023-01-03 16:49:00,,0817.6,5.01,0.00,22.8,21.3,00.0,31.6,24.4,11.1,0000.0,0009.42,0002.52,0001.70
2023-01-03 16:50:00,,0817.6,4.99,0.00,22.7,21.3,00.0,31.6,24.4,11.1,0000.0,0008.55,0002.51,0001.70
2023-01-03 16:51:00,,0817.5,4.99,0.00,22.7,21.3,00.0,31.6,24.4,11.1,0000.0,0007.83,0002.44,0001.69
2023-01-03 16:52:00,,0817.5,5.00,0.00,22.7,21.3,00.0,31.6,24.4,11.0,0000.0,0007.88,0002.37,0001.68
2023-01-03 16:53:00,,0817.5,4.99,0.00,22.7,21.3,00.0,31.6,24.4,11.1,0000.0,0008.12,0002.34,0001.65
2023-01-03 16:54:00,,0817.5,4.99,0.00,22.7,21.2,00.0,31.6,24.4,11.2,0000.0,0008.33,0002.29,0001.64
2023-01-03 16:55:00,,0817.5,5.00,0.00,22.7,21.2,00.0,31.6,24.4,11.2,0000.0,0008.19,0002.22,0001.64
2023-01-03 16:56:00,,0817.5,5.01,0.00,22.7,21.2,00.0,31.6,24.4,11.2,0000.0,0007.57,0002.13,0001.62
2023-01-03 16:57:00,,0817.6,5.00,0.00,22.7,21.2,00.0,31.6,24.4,11.3,0000.0,0006.32,0002.09,0001.60
2023-01-03 16:58:00,,0817.6,5.00,0.00,22.7,21.2,00.0,31.5,24.4,11.4,0000.0,0005.72,0002.06,0001.60
2023-01-03 16:59:00,,0817.7,4.99,0.00,22.7,21.2,00.0,31.5,24.4,11.4,0000.0,0005.46,0002.03,0001.60
